N4DCI Weather Reports


Display with metric or nautical units.
time (UTC)temp
F
wind
direction
speed
MPH
gust
MPH
rain 1hr
in
rain 24hr
in
rain mn
in
humidity
%
barometer
mb
20260906040005 70 109 0.0 0.0 0.00 0.00 0.00 93 1017.5
20260906034503 70 109 0.0 0.0 0.00 0.00 0.00 93 1017.8
20260906033003 70 109 0.0 0.0 0.00 0.00 0.00 93 1017.8
20260906031504 71 109 0.0 1.0 0.00 0.00 0.00 92 1017.8
20260906030003 70 108 0.0 1.0 0.00 0.00 0.00 92 1017.8
20260906023003 71 109 0.0 1.0 0.00 0.00 0.00 92 1017.8
20260906021503 71 109 0.0 0.0 0.00 0.00 0.00 91 1017.3
20260906020008 71 109 0.0 0.0 0.00 0.00 0.00 90 1017.3
20260906014505 71 109 0.0 0.0 0.00 0.00 0.00 90 1017.4
20260906013004 72 108 1.0 2.0 0.00 0.00 0.00 89 1017.3
20260906011504 72 149 0.0 0.0 0.00 0.00 0.00 88 1017.4
20260906010005 73 149 0.0 1.0 0.00 0.00 0.00 87 1017.1
20260906003004 74 149 0.0 0.0 0.00 0.00 0.00 84 1017.1
20260906001504 75 149 0.0 0.0 0.00 0.00 0.00 83 1016.8
20260906000006 76 149 0.0 0.0 0.00 0.00 0.00 81 1016.5
20260905234503 77 149 0.0 2.0 0.00 0.00 0.00 79 1016.2
20260905233003 78 152 0.0 0.0 0.00 0.00 0.00 77 1016.2
20260905231503 79 152 0.0 3.0 0.00 0.00 0.00 76 1016.2
20260905230003 79 140 0.0 3.0 0.00 0.00 0.00 74 1016.2
20260905224503 80 126 0.0 0.0 0.00 0.00 0.00 72 1016.1
20260905213004 81 53 2.0 4.0 0.00 0.00 0.00 69 1016.7
20260905211503 80 127 0.0 6.0 0.00 0.00 0.00 69 1016.9
20260905210005 80 78 2.0 3.0 0.00 0.00 0.00 68 1017.0
20260905204509 81 128 0.0 4.0 0.00 0.00 0.00 67 1017.0
20260905203004 81 125 1.0 3.0 0.00 0.00 0.00 68 1017.3
20260905201504 80 88 0.0 4.0 0.00 0.00 0.00 68 1017.6
20260905200006 79 74 1.0 4.0 0.00 0.00 0.00 70 1017.6
20260905194503 77 137 1.0 2.0 0.00 0.00 0.00 73 1017.8
20260905191503 75 15 1.0 5.0 0.00 0.00 0.00 75 1017.8
20260905190004 75 109 1.0 5.0 0.00 0.00 0.00 74 1018.0
20260905184504 77 239 2.0 7.0 0.00 0.00 0.00 69 1019.3
20260905183003 80 228 4.0 6.0 0.00 0.00 0.00 69 1019.0
20260905181503 83 226 1.0 4.0 0.00 0.00 0.00 69 1018.0
20260905180003 85 329 1.0 6.0 0.00 0.00 0.00 65 1017.9
20260905174504 86 85 2.0 4.0 0.00 0.00 0.00 61 1017.9
20260905173004 88 244 0.0 8.0 0.00 0.00 0.00 59 1018.1
20260905170007 90 10 2.0 7.0 0.00 0.00 0.00 62 1018.4
20260905164503 89 290 2.0 5.0 0.00 0.00 0.00 60 1018.5
20260905163004 89 98 3.0 6.0 0.00 0.00 0.00 60 1018.7
20260905161503 88 69 3.0 6.0 0.00 0.00 0.00 64 1018.9
20260905160005 87 185 2.0 7.0 0.00 0.00 0.00 68 1018.9
20260905154503 87 96 4.0 9.0 0.00 0.00 0.00 67 1019.0
20260905153004 86 71 2.0 8.0 0.00 0.00 0.00 68 1018.9
20260905150003 84 207 1.0 6.0 0.00 0.00 0.00 73 1018.9
20260905144503 82 257 1.0 6.0 0.00 0.00 0.00 75 1019.0
20260905143002 81 132 1.0 8.0 0.00 0.00 0.00 77 1019.1
20260905141503 80 66 2.0 6.0 0.00 0.00 0.00 80 1019.0
20260905134503 76 69 2.0 6.0 0.00 0.00 0.00 89 1019.2
20260905133003 74 38 1.0 5.0 0.00 0.00 0.00 92 1019.4
20260905130004 72 72 1.0 5.0 0.00 0.00 0.00 95 1019.6
20260905124503 71 159 2.0 3.0 0.00 0.00 0.00 96 1019.5
20260905123003 70 43 0.0 3.0 0.00 0.00 0.00 97 1019.4
20260905121503 69 141 0.0 1.0 0.00 0.00 0.00 97 1019.3
20260905120003 69 143 0.0 0.0 0.00 0.00 0.00 97 1019.3
20260905114503 69 142 0.0 0.0 0.00 0.00 0.00 97 1019.0
20260905113003 68 142 0.0 0.0 0.00 0.00 0.00 97 1018.7
20260905110005 68 142 0.0 0.0 0.00 0.00 0.00 97 1018.5
20260905104504 68 142 0.0 0.0 0.00 0.00 0.00 97 1018.1
20260905103003 69 142 0.0 0.0 0.00 0.00 0.00 97 1018.1
20260905101503 69 142 0.0 0.0 0.00 0.00 0.00 97 1018.0
20260905100004 69 142 0.0 0.0 0.00 0.00 0.00 97 1018.0
20260905094503 69 142 0.0 0.0 0.00 0.00 0.00 97 1017.9
20260905091502 69 142 0.0 0.0 0.00 0.00 0.00 97 1018.1
20260905090005 70 142 0.0 0.0 0.00 0.00 0.00 97 1018.2
20260905084503 70 142 0.0 0.0 0.00 0.00 0.00 97 1018.3
20260905083003 70 142 0.0 3.0 0.00 0.00 0.00 97 1018.6
20260905081503 70 142 0.0 0.0 0.00 0.00 0.00 97 1018.7
20260905080005 70 142 0.0 0.0 0.00 0.00 0.00 96 1018.9
20260905074503 70 142 0.0 0.0 0.00 0.00 0.00 96 1018.9
20260905071503 70 142 0.0 0.0 0.00 0.00 0.00 96 1019.0
20260905070005 70 142 0.0 0.0 0.00 0.00 0.00 96 1019.2
20260905064502 71 142 0.0 0.0 0.00 0.00 0.00 96 1019.3
20260905063003 71 142 0.0 0.0 0.00 0.00 0.00 96 1019.5
20260905061503 71 142 0.0 0.0 0.00 0.00 0.00 96 1019.6
20260905055958 71 142 0.0 0.0 0.00 0.00 0.00 96 1019.6
20260905054458 71 142 0.0 0.0 0.00 0.00 0.00 96 1019.8
20260905052958 71 142 0.0 0.0 0.00 0.00 0.00 94 1020.0
20260905051458 71 142 0.0 0.0 0.00 0.00 0.00 94 1019.8
20260905050001 71 142 0.0 0.0 0.00 0.00 0.00 94 1020.0
20260905044502 72 142 0.0 0.0 0.00 0.00 0.00 94 1019.8
20260905043000 72 142 0.0 0.0 0.00 0.00 0.00 94 1019.8